Погода в Кирицах

Россия / Рязанская область     54°17′11″N   40°20′58″E
темп.,
°C
ветер,
м/с
пор.,
м/с
влажн.,
%
обл.,
%
осадки,
мм/ч
давл.,
гПа
погр.,
м
11 апреля, вс
вс1100:00+4сз11580 0.0 102710
03:00+3сз11620 0.0 102810
06:00+2сз11640 0.0 102910
09:00+7ссв1150100 0.0 1030237
12:00+11ссв2241100 0.0 1030882
15:00+12св3439100 0.0 10301042
18:00+10всв3653100 0.0 1031176
21:00+7всв3867100 0.0 1032145
12 апреля, пн
пн1200:00+5св3973100 0.0 1032193
03:00+4св51268100 0.0 1032258
06:00+4св51273100 0.0 1031330
09:00+7всв6984100 0.0 1031434
12:00+11в6774100 0.0 1029607
15:00+14в5765100 0.0 1028716
18:00+14в4873100 0.0 1027201
21:00+11в4128691 0.0 1026207
13 апреля, вт
вт1300:00+10юв4117955 0.0 1026169
03:00+8юв410796 0.0 1026138
06:00+8ююв4118064 0.0 1026172
09:00+13ююв51060100 0.0 1025334
12:00+18ююв683817 0.0 1024785
15:00+20ююв68316 0.0 10231726
18:00+17ююв374896 0.0 1022119
21:00+13ююв49585 0.0 1023138
14 апреля, ср
ср1400:00+11ююв413675 0.0 1022233
03:00+10ююв41073100 0.0 1022160
06:00+9ююв41074100 0.0 1021170
09:00+14ююв595486 0.0 1021361
12:00+18ююв6938100 0.0 1020776
15:00+18ю6736100 0.0 10201093
18:00+16ююв3552100 0.0 101997
21:00+13ююв4751100 0.0 1019116
15 апреля, чт
чт1500:00+11ю2360100 0.0 101824
03:00+10ююз3371100 0.0 101827
06:00+10ююз2280100 0.0 101715
09:00+15ююз236769 0.0 1017293
12:00+18зюз345295 0.1 10161052
15:00+18зюз5651100 0.2 10151450
18:00+12ссз6890100 0.6 1015389
21:00+8с4891100 1.1 1015464